Location: Borovka
(49.7741°N, 14.5280°E)
Time: 17:07:10
(UTC+00:00)

Resurs 01 Rocket - Pass Details

Date: 17 November 2025
Orbit: 626 x 637 km, 97.7° (Epoch: 13 December)

Event Time Altitude Azimuth Distance (km) Brightness Sun altitude
Exits shadow 18:46:22 18° 323° (NW) 1,560 4.0 -33.7°
Drops below altitude 10° 18:47:42 10° 332° (NNW) 2,036 4.6 -33.9°
Sets 18:50:02 0° 341° (NNW) 2,949 5.4 -34.3°
